This demonstration page uses our WeatherBlox Daily Observations layout. Learn more.

Left ArrowRight Arrow

Hourly Observations for October 4, 2022

Temp ( °F °C ) Dew Point ( °F °C ) Humidity (%) Winds ( mph kmh ) Pressure ( in mb ) Visibility ( mi km ) Precip ( " mm )
12:53 am 00:53 Clear 58 14.4 51 10.6 78 78 Calm 30.08 1019 9 14 0.00 0.00
1:53 am 01:53 Clear 57 13.9 50 10 77 77 Calm 30.07 1018 7 11 0.00 0.00
2:53 am 02:53 Hazy 56 13.3 49 9.4 77 77 W 5 7 30.07 1018 5 8 0.00 0.00
3:53 am 03:53 Clear 56 13.3 48 8.9 75 75 Calm 30.07 1018 7 11 0.00 0.00
4:53 am 04:53 Clear 56 13.3 53 11.7 90 90 Calm 30.06 1018 9 14 0.00 0.00
5:53 am 05:53 Clear 54 12.2 47 8.3 77 77 Calm 30.08 1019 8 13 0.00 0.00
6:53 am 06:53 Clear 55 12.8 47 8.3 74 74 Calm 30.09 1019 8 13 0.00 0.00
7:53 am 07:53 Hazy 55 12.8 50 10 83 83 Calm 30.10 1019 5 8 0.00 0.00
8:53 am 08:53 Sunny 65 18.3 54 12.2 68 68 Calm 30.11 1020 7 11 0.00 0.00
9:53 am 09:53 Sunny 73 22.8 56 13.3 55 55 ENE 5 7 30.11 1020 10 16 0.00 0.00
10:53 am 10:53 Sunny 74 23.3 57 13.9 56 56 Calm 30.11 1020 10 16 0.00 0.00
11:53 am 11:53 Sunny 80 26.7 57 13.9 45 45 Calm 30.11 1020 10 16 0.00 0.00
12:53 pm 12:53 Mostly Sunny 81 27.2 56 13.3 42 42 Calm 30.09 1019 10 16 0.00 0.00
1:53 pm 13:53 Sunny 83 28.3 56 13.3 40 40 undefined N/A 30.06 1018 10 16 0.00 0.00
2:53 pm 14:53 Sunny 84 28.9 55 12.8 37 37 Calm 30.03 1017 10 16 0.00 0.00
3:53 pm 15:53 Sunny 83 28.3 54 12.2 37 37 E 5 7 30.02 1017 10 16 0.00 0.00
4:53 pm 16:53 Sunny 83 28.3 53 11.7 36 36 ESE 6 9 30.01 1016 10 16 0.00 0.00
5:53 pm 17:53 Sunny 82 27.8 55 12.8 40 40 S 3 6 30.01 1016 10 16 0.00 0.00
6:53 pm 18:53 Mostly Clear 76 24.4 57 13.9 52 52 Calm 30.02 1017 10 16 0.00 0.00
7:53 pm 19:53 Clear 71 21.7 59 15 66 66 Calm 30.04 1017 10 16 0.01 0.13
8:53 pm 20:53 Clear 67 19.4 59 15 76 76 Calm 30.05 1018 10 16 0.00 0.00
9:53 pm 21:53 Clear 65 18.3 58 14.4 78 78 Calm 30.06 1018 10 16 0.00 0.00
10:53 pm 22:53 Clear 63 17.2 51 10.6 65 65 Calm 30.06 1018 10 16 0.00 0.00
11:53 pm 23:53 Clear 62 16.7 51 10.6 67 67 Calm 30.06 1018 10 16 0.00 0.00

Powered by AerisWeather